TimePDT,TemperatureF,Dew PointF,Humidity,Sea Level PressureIn,VisibilityMPH,Wind Direction,Wind SpeedMPH,Gust SpeedMPH,PrecipitationIn,Events,Conditions,WindDirDegrees,DateUTC
12:53 AM,62.1,45.0,53,29.96,10.0,North,3.5,-,N/A,,Clear,350,2013-06-09 07:53:00
1:53 AM,62.1,45.0,53,29.96,10.0,NNW,5.8,-,N/A,,Clear,330,2013-06-09 08:53:00
2:53 AM,61.0,45.0,56,29.96,10.0,NNW,6.9,-,N/A,,Clear,340,2013-06-09 09:53:00
3:53 AM,60.1,45.0,57,29.96,10.0,North,6.9,-,N/A,,Clear,350,2013-06-09 10:53:00
4:53 AM,59.0,44.1,58,29.96,10.0,NW,3.5,-,N/A,,Clear,320,2013-06-09 11:53:00
5:53 AM,53.1,44.1,71,29.96,10.0,WNW,3.5,-,N/A,,Clear,290,2013-06-09 12:53:00
6:53 AM,61.0,46.0,58,29.97,10.0,Calm,Calm,-,N/A,,Clear,0,2013-06-09 13:53:00
7:53 AM,66.9,42.1,40,29.97,10.0,NW,13.8,-,N/A,,Clear,320,2013-06-09 14:53:00
8:53 AM,69.1,39.9,35,29.96,10.0,NW,13.8,-,N/A,,Clear,310,2013-06-09 15:53:00
9:53 AM,72.0,37.9,29,29.95,10.0,Calm,Calm,-,N/A,,Clear,0,2013-06-09 16:53:00
10:53 AM,75.0,39.0,27,29.94,10.0,NNW,5.8,-,N/A,,Clear,330,2013-06-09 17:53:00
11:53 AM,77.0,37.0,24,29.93,10.0,Calm,Calm,-,N/A,,Clear,0,2013-06-09 18:53:00
12:53 PM,80.1,37.9,22,29.91,10.0,East,5.8,-,N/A,,Clear,100,2013-06-09 19:53:00
1:53 PM,81.0,35.1,19,29.89,10.0,West,4.6,-,N/A,,Clear,280,2013-06-09 20:53:00
2:53 PM,82.9,35.1,18,29.87,10.0,Variable,3.5,-,N/A,,Clear,0,2013-06-09 21:53:00
3:53 PM,82.9,36.0,19,29.85,10.0,West,5.8,-,N/A,,Clear,260,2013-06-09 22:53:00
4:53 PM,82.9,37.0,19,29.84,10.0,NE,12.7,18.4,N/A,,Clear,40,2013-06-09 23:53:00
5:06 PM,82.4,37.4,20,29.86,10.0,NNE,10.4,-,N/A,,Clear,20,2013-06-10 00:06:00
5:53 PM,82.0,37.9,21,29.83,10.0,North,13.8,-,N/A,,Clear,360,2013-06-10 00:53:00
6:53 PM,79.0,37.9,23,29.83,10.0,North,8.1,-,N/A,,Clear,360,2013-06-10 01:53:00
7:53 PM,73.9,41.0,30,29.84,10.0,North,15.0,-,N/A,,Clear,10,2013-06-10 02:53:00
8:53 PM,70.0,41.0,35,29.86,10.0,North,8.1,-,N/A,,Clear,360,2013-06-10 03:53:00
9:53 PM,66.0,41.0,40,29.88,10.0,NNW,11.5,18.4,N/A,,Clear,330,2013-06-10 04:53:00
10:53 PM,63.0,41.0,45,29.90,10.0,NNW,13.8,-,N/A,,Clear,330,2013-06-10 05:53:00
11:53 PM,62.1,39.9,44,29.90,10.0,NNW,11.5,20.7,N/A,,Clear,340,2013-06-10 06:53:00